Location: Marcé
(47.5801°N, 0.3280°W)
Time: 11:11:19
(UTC+01:00)

deb Explorer IX - Pass Details

Date: 06 December 2021
Orbit: 544 x 1082 km, 38.8° (Epoch: 17 January)

Event Time Altitude Azimuth Distance (km) Brightness Sun altitude
Rises 10:16:57 0° 222° (SW) 3,193 ? 11.7°
Reaches altitude 10° 10:20:12 10° 204° (SSW) 2,159 ? 12.0°
Maximum altitude 10:23:32 18° 162° (SSE) 1,590 ? 12.3°
Drops below altitude 10° 10:26:36 10° 119° (ESE) 1,967 ? 12.6°
Sets 10:29:22 0° 100° (E) 2,802 ? 12.9°
